Simultaneous Nadir Overpasses (SNOs) Predictions

Prediction of SNOs between FY3D and LANDSAT-8 Satellite Orbit:

Table of predicted SNOs for the next 14.0 days since TLE Epoch: 10/5/2024
Index Date (FY3D) Time (FY3D) Lat,Lon (FY3D) SZA (FY3D ) Date (LANDSAT-8) Time (LANDSAT-8) Lat,Lon (LANDSAT-8) SZA (LANDSAT-8 ) Distance(km) Time Diff (sec)
1 10/05/2024 18:46:45 74.89, -96.80 80.09 10/05/2024 18:47:30 74.87, -96.71 80.08 3.01 45
2 10/05/2024 19:37:28 -74.80, 70.75 99.98 10/05/2024 19:36:59 -74.80, 70.73 99.99 0.83 29
3 10/08/2024 10:13:16 -75.22,-149.34 98.60 10/08/2024 10:14:26 -75.12,-147.81 98.63 44.94 70
4 10/08/2024 11:03:53 74.82, 19.15 81.06 10/08/2024 11:03:57 74.84, 19.11 81.08 2.82 4
5 10/08/2024 11:54:37 -74.78,-173.42 98.97 10/08/2024 11:53:26 -74.77,-173.45 98.99 1.42 71
6 10/11/2024 02:30:18 -74.86, -32.51 97.90 10/11/2024 02:30:56 -74.87, -32.56 97.89 2.02 38
7 10/11/2024 03:21:02 74.80, 134.99 82.06 10/11/2024 03:20:23 74.79, 134.87 82.04 3.42 39
8 10/13/2024 17:56:43 74.92, -84.22 83.15 10/13/2024 17:57:50 74.92, -84.16 83.17 1.78 67
9 10/13/2024 18:47:27 -74.87, 83.23 96.88 10/13/2024 18:47:19 -74.85, 83.29 96.90 3.10 8
10 10/13/2024 19:38:01 74.33,-107.96 82.67 10/13/2024 19:36:53 74.41,-110.17 82.63 66.64 68
11 10/16/2024 10:13:50 74.88, 31.67 84.12 10/16/2024 10:14:11 74.87, 31.63 84.11 1.31 21
12 10/16/2024 11:04:34 -74.83,-160.88 95.92 10/16/2024 11:03:40 -74.80,-160.91 95.96 3.24 54
13 10/19/2024 01:40:12 -74.93, -20.02 94.88 10/19/2024 01:41:01 -74.95, -19.89 94.85 3.88 49
14 10/19/2024 02:30:55 74.83, 147.59 85.05 10/19/2024 02:30:28 74.85, 147.51 85.06 3.04 27



Historial Predications of SNOs between FY3D and LANDSAT-8
